QPF
0.00 0.00 0.00 0.00 0.00 0.00 0.00 0.00 0.00 0.00 0.00 0.00 0.00 0.00 0.00 0.00 0.00 0.00 0.01 0.01 0.01 0.01 0.01 0.02 0.03 0.04 0.04 0.04 0.03 0.03 0.03 0.04 0.05 0.06 0.06 0.06 0.05 0.06 0.05 0.04 0.04 0.03 0.04 0.04 0.05 0.03 0.03 0.03 0.03
0.00 0.00 0.00 0.00 0.00 0.00 0.00 0.00 0.00 0.00 0.00 0.00 0.00 0.00 0.00 0.00 0.00 0.01 0.01 0.01 0.01 0.01 0.01 0.01 0.03 0.04 0.03 0.03 0.03 0.03 0.03 0.03 0.05 0.06 0.06 0.06 0.06 0.07 0.07 0.06 0.05 0.05 0.03 0.03 0.03 0.03 0.03 0.03 0.03
0.00 0.00 0.00 0.00 0.00 0.00 0.00 0.00 0.00 0.00 0.00 0.00 0.00 0.00 0.00 0.01 0.01 0.01 0.01 0.01 0.01 0.01 0.01 0.01 0.03 0.04 0.03 0.03 0.03 0.04 0.04 0.05 0.05 0.04 0.04 0.04 0.05 0.05 0.05 0.04 0.05 0.05 0.04 0.02 0.02 0.02 0.03 0.03 0.03
0.00 0.00 0.00 0.00 0.00 0.00 0.00 0.00 0.00 0.00 0.00 0.00 0.00 0.00 0.00 0.00 0.01 0.02 0.02 0.02 0.01 0.01 0.01 0.01 0.02 0.03 0.04 0.05 0.05 0.06 0.06 0.07 0.07 0.06 0.06 0.06 0.06 0.05 0.04 0.03 0.03 0.04 0.04 0.03 0.03 0.02 0.03 0.03 0.02
0.01 0.01 0.00 0.00 0.00 0.00 0.00 0.00 0.00 0.00 0.00 0.00 0.00 0.00 0.00 0.00 0.01 0.01 0.02 0.02 0.02 0.02 0.01 0.01 0.02 0.03 0.05 0.06 0.06 0.07 0.08 0.10 0.12 0.10 0.09 0.10 0.09 0.05 0.03 0.02 0.01 0.02 0.03 0.03 0.03 0.03 0.03 0.02 0.02
0.01 0.01 0.00 0.00 0.00 0.00 0.00 0.00 0.00 0.00 0.00 0.00 0.00 0.00 0.00 0.00 0.01 0.01 0.01 0.02 0.02 0.02 0.02 0.01 0.02 0.03 0.05 0.05 0.04 0.05 0.07 0.10 0.11 0.11 0.09 0.08 0.06 0.05 0.03 0.03 0.02 0.02 0.02 0.03 0.03 0.03 0.02 0.02 0.01
0.00 0.00 0.00 0.00 0.00 0.00 0.00 0.00 0.00 0.00 0.00 0.00 0.00 0.00 0.00 0.00 0.00 0.01 0.01 0.01 0.02 0.02 0.02 0.02 0.03 0.04 0.04 0.04 0.04 0.04 0.06 0.10 0.11 0.11 0.10 0.08 0.05 0.04 0.03 0.03 0.02 0.02 0.02 0.02 0.02 0.02 0.02 0.02 0.01
0.00 0.00 0.00 0.00 0.00 0.00 0.00 0.00 0.00 0.00 0.00 0.00 0.00 0.00 0.00 0.00 0.00 0.01 0.01 0.01 0.02 0.02 0.02 0.02 0.03 0.04 0.05 0.04 0.03 0.03 0.05 0.07 0.09 0.09 0.08 0.06 0.04 0.04 0.03 0.03 0.03 0.02 0.02 0.02 0.02 0.02 0.01 0.02 0.02
0.01 0.00 0.00 0.00 0.00 0.00 0.00 0.00 0.00 0.00 0.00 0.00 0.00 0.00 0.00 0.00 0.00 0.01 0.01 0.02 0.02 0.02 0.03 0.03 0.03 0.03 0.04 0.06 0.06 0.04 0.04 0.05 0.06 0.07 0.06 0.03 0.02 0.03 0.03 0.03 0.03 0.02 0.02 0.02 0.02 0.02 0.02 0.02 0.02
0.01 0.00 0.00 0.00 0.00 0.00 0.00 0.00 0.00 0.00 0.00 0.00 0.00 0.00 0.00 0.00 0.01 0.01 0.02 0.02 0.02 0.03 0.04 0.05 0.05 0.04 0.03 0.04 0.06 0.07 0.06 0.06 0.05 0.06 0.06 0.03 0.02 0.02 0.02 0.02 0.02 0.02 0.02 0.02 0.02 0.02 0.02 0.02 0.02
0.01 0.00 0.00 0.00 0.00 0.00 0.00 0.00 0.00 0.00 0.00 0.00 0.00 0.00 0.00 0.01 0.01 0.01 0.02 0.03 0.03 0.03 0.03 0.04 0.06 0.05 0.03 0.03 0.03 0.05 0.07 0.07 0.06 0.05 0.05 0.03 0.02 0.02 0.02 0.02 0.02 0.02 0.02 0.02 0.02 0.02 0.02 0.02 0.02
0.01 0.00 0.00 0.00 0.00 0.00 0.00 0.00 0.00 0.00 0.00 0.00 0.00 0.00 0.00 0.01 0.01 0.01 0.01 0.02 0.03 0.04 0.05 0.05 0.05 0.05 0.05 0.03 0.03 0.04 0.05 0.06 0.07 0.05 0.04 0.03 0.02 0.02 0.02 0.02 0.03 0.03 0.03 0.02 0.01 0.02 0.02 0.02 0.02
0.02 0.01 0.00 0.00 0.00 0.00 0.00 0.00 0.00 0.00 0.00 0.00 0.00 0.00 0.00 0.00 0.01 0.01 0.01 0.01 0.01 0.02 0.04 0.06 0.06 0.05 0.06 0.05 0.03 0.03 0.04 0.04 0.05 0.06 0.05 0.03 0.03 0.03 0.02 0.02 0.04 0.04 0.04 0.03 0.02 0.02 0.02 0.02 0.02
0.03 0.01 0.01 0.00 0.00 0.00 0.00 0.00 0.00 0.00 0.00 0.00 0.00 0.00 0.00 0.00 0.00 0.00 0.01 0.01 0.01 0.02 0.02 0.03 0.05 0.07 0.07 0.06 0.05 0.02 0.03 0.03 0.03 0.03 0.05 0.04 0.02 0.02 0.03 0.03 0.03 0.04 0.05 0.06 0.04 0.04 0.03 0.03 0.02
0.03 0.02 0.01 0.01 0.00 0.00 0.00 0.00 0.00 0.00 0.00 0.00 0.00 0.00 0.00 0.00 0.00 0.00 0.01 0.01 0.01 0.02 0.02 0.02 0.03 0.05 0.06 0.07 0.06 0.03 0.02 0.02 0.02 0.02 0.02 0.03 0.03 0.03 0.03 0.04 0.04 0.04 0.04 0.04 0.05 0.05 0.05 0.04 0.03
0.04 0.03 0.02 0.02 0.01 0.00 0.00 0.00 0.00 0.00 0.00 0.00 0.00 0.00 0.00 0.00 0.00 0.00 0.01 0.01 0.01 0.01 0.02 0.02 0.03 0.04 0.04 0.05 0.06 0.05 0.02 0.02 0.03 0.03 0.03 0.03 0.04 0.04 0.05 0.05 0.05 0.05 0.05 0.05 0.05 0.05 0.05 0.05 0.04
0.04 0.04 0.02 0.01 0.01 0.00 0.00 0.00 0.00 0.00 0.00 0.00 0.00 0.00 0.00 0.00 0.00 0.00 0.00 0.01 0.01 0.01 0.01 0.01 0.02 0.03 0.04 0.05 0.05 0.06 0.06 0.05 0.04 0.04 0.04 0.05 0.05 0.06 0.06 0.06 0.06 0.06 0.06 0.04 0.04 0.03 0.04 0.04 0.04
0.03 0.03 0.01 0.01 0.01 0.00 0.00 0.00 0.00 0.00 0.00 0.00 0.00 0.00 0.00 0.00 0.00 0.00 0.00 0.01 0.01 0.01 0.01 0.02 0.02 0.02 0.03 0.04 0.05 0.05 0.06 0.05 0.05 0.06 0.05 0.04 0.04 0.05 0.06 0.07 0.07 0.06 0.05 0.04 0.04 0.03 0.03 0.03 0.03
0.02 0.02 0.01 0.00 0.01 0.00 0.00 0.00 0.00 0.00 0.00 0.00 0.00 0.00 0.00 0.00 0.00 0.00 0.00 0.01 0.02 0.01 0.01 0.01 0.01 0.02 0.02 0.03 0.04 0.04 0.04 0.04 0.04 0.04 0.04 0.05 0.05 0.05 0.05 0.05 0.07 0.08 0.06 0.05 0.05 0.04 0.03 0.03 0.03
0.01 0.01 0.01 0.01 0.00 0.00 0.00 0.00 0.00 0.00 0.00 0.00 0.00 0.00 0.00 0.00 0.00 0.00 0.00 0.01 0.01 0.02 0.02 0.01 0.01 0.02 0.03 0.03 0.03 0.03 0.04 0.03 0.03 0.04 0.04 0.05 0.05 0.05 0.06 0.06 0.06 0.06 0.06 0.06 0.06 0.06 0.05 0.04 0.03
0.01 0.01 0.01 0.01 0.01 0.00 0.00 0.00 0.00 0.00 0.00 0.00 0.00 0.00 0.00 0.00 0.00 0.00 0.00 0.00 0.01 0.01 0.02 0.02 0.01 0.02 0.02 0.03 0.03 0.04 0.04 0.03 0.03 0.02 0.02 0.04 0.05 0.05 0.05 0.06 0.07 0.07 0.06 0.05 0.05 0.05 0.05 0.05 0.04
0.01 0.01 0.01 0.01 0.01 0.01 0.01 0.01 0.00 0.00 0.01 0.01 0.01 0.00 0.00 0.00 0.00 0.00 0.00 0.00 0.00 0.01 0.01 0.02 0.02 0.02 0.02 0.03 0.03 0.04 0.05 0.04 0.03 0.03 0.03 0.02 0.03 0.05 0.07 0.07 0.07 0.06 0.08 0.07 0.05 0.05 0.05 0.05 0.04
0.01 0.01 0.01 0.01 0.01 0.01 0.01 0.01 0.00 0.00 0.00 0.01 0.01 0.01 0.01 0.00 0.00 0.00 0.00 0.00 0.00 0.00 0.00 0.01 0.01 0.02 0.02 0.03 0.03 0.03 0.05 0.05 0.05 0.04 0.03 0.03 0.03 0.04 0.06 0.07 0.07 0.07 0.07 0.07 0.07 0.07 0.05 0.04 0.04
0.01 0.01 0.01 0.02 0.02 0.02 0.01 0.01 0.00 0.00 0.00 0.00 0.01 0.01 0.01 0.01 0.00 0.00 0.00 0.00 0.00 0.00 0.00 0.00 0.01 0.01 0.01 0.01 0.02 0.02 0.03 0.04 0.04 0.04 0.05 0.04 0.03 0.03 0.04 0.05 0.07 0.08 0.08 0.08 0.07 0.08 0.07 0.06 0.05
0.02 0.02 0.02 0.03 0.03 0.01 0.01 0.00 0.00 0.00 0.00 0.00 0.01 0.01 0.01 0.01 0.00 0.00 0.00 0.00 0.00 0.00 0.00 0.00 0.00 0.01 0.01 0.01 0.01 0.01 0.01 0.02 0.03 0.03 0.04 0.05 0.05 0.05 0.04 0.04 0.05 0.06 0.08 0.10 0.09 0.09 0.08 0.07 0.06
0.01 0.01 0.01 0.01 0.01 0.00 0.00 0.00 0.00 0.00 0.00 0.00 0.01 0.01 0.01 0.01 0.01 0.00 0.00 0.00 0.00 0.00 0.00 0.00 0.00 0.00 0.01 0.01 0.00 0.00 0.00 0.01 0.01 0.02 0.02 0.03 0.03 0.04 0.05 0.05 0.05 0.05 0.06 0.07 0.09 0.09 0.08 0.07 0.06
0.00 0.01 0.00 0.01 0.01 0.00 0.00 0.00 0.00 0.00 0.00 0.00 0.01 0.01 0.01 0.01 0.01 0.01 0.00 0.00 0.00 0.00 0.00 0.00 0.00 0.00 0.00 0.01 0.01 0.00 0.00 0.00 0.00 0.01 0.01 0.02 0.02 0.03 0.04 0.05 0.06 0.06 0.06 0.07 0.08 0.09 0.09 0.08 0.06
0.00 0.01 0.01 0.02 0.01 0.01 0.00 0.00 0.00 0.00 0.00 0.00 0.01 0.01 0.01 0.01 0.01 0.01 0.00 0.00 0.00 0.00 0.00 0.00 0.00 0.00 0.00 0.00 0.01 0.01 0.00 0.00 0.00 0.00 0.00 0.01 0.01 0.01 0.02 0.03 0.04 0.05 0.07 0.07 0.07 0.08 0.08 0.09 0.08
0.00 0.01 0.01 0.01 0.01 0.01 0.00 0.00 0.00 0.00 0.00 0.00 0.01 0.01 0.01 0.01 0.01 0.01 0.01 0.01 0.00 0.00 0.00 0.00 0.00 0.00 0.00 0.00 0.01 0.01 0.00 0.00 0.00 0.00 0.01 0.01 0.01 0.01 0.02 0.02 0.03 0.04 0.05 0.06 0.05 0.05 0.06 0.06 0.06
0.00 0.00 0.01 0.01 0.01 0.01 0.01 0.00 0.00 0.00 0.00 0.00 0.00 0.01 0.01 0.01 0.01 0.01 0.01 0.01 0.01 0.01 0.00 0.00 0.00 0.00 0.00 0.01 0.01 0.01 0.01 0.01 0.01 0.01 0.01 0.02 0.02 0.02 0.02 0.02 0.03 0.04 0.04 0.05 0.04 0.04 0.05 0.04 0.04
MSLP
1013.74 1013.71 1013.86 1014.20 1014.65 1015.13 1015.56 1015.86 1015.98 1015.95 1015.82 1015.70 1015.70 1015.90 1016.34 1017.01 1017.81 1018.63 1019.31 1019.73 1019.81 1019.53 1018.95 1018.17 1017.30 1016.48 1015.80 1015.29 1014.97 1014.78 1014.67 1014.58 1014.48 1014.37 1014.26 1014.17 1014.14 1014.18 1014.30 1014.47 1014.65 1014.81 1014.91 1014.96 1014.95 1014.89 1014.81 1014.73 1014.65
1013.98 1013.98 1014.15 1014.48 1014.89 1015.33 1015.70 1015.96 1016.07 1016.07 1016.01 1015.99 1016.11 1016.44 1016.98 1017.72 1018.56 1019.37 1020.00 1020.35 1020.34 1019.99 1019.34 1018.50 1017.61 1016.78 1016.10 1015.61 1015.29 1015.10 1014.99 1014.89 1014.77 1014.63 1014.48 1014.36 1014.28 1014.28 1014.36 1014.50 1014.67 1014.84 1014.97 1015.06 1015.10 1015.11 1015.09 1015.05 1015.00
1014.23 1014.26 1014.42 1014.71 1015.06 1015.41 1015.72 1015.92 1016.03 1016.07 1016.10 1016.20 1016.46 1016.92 1017.58 1018.40 1019.27 1020.07 1020.66 1020.95 1020.88 1020.48 1019.79 1018.94 1018.06 1017.24 1016.58 1016.10 1015.80 1015.62 1015.51 1015.41 1015.29 1015.13 1014.96 1014.79 1014.67 1014.61 1014.63 1014.72 1014.84 1014.98 1015.11 1015.21 1015.29 1015.33 1015.35 1015.35 1015.32
1014.47 1014.51 1014.65 1014.88 1015.15 1015.42 1015.65 1015.81 1015.91 1015.99 1016.12 1016.35 1016.74 1017.33 1018.09 1018.97 1019.86 1020.64 1021.20 1021.45 1021.36 1020.95 1020.28 1019.46 1018.62 1017.85 1017.23 1016.79 1016.51 1016.35 1016.25 1016.16 1016.04 1015.87 1015.68 1015.49 1015.32 1015.20 1015.15 1015.16 1015.22 1015.30 1015.39 1015.47 1015.55 1015.60 1015.64 1015.64 1015.62
1014.65 1014.71 1014.84 1015.02 1015.22 1015.40 1015.56 1015.69 1015.79 1015.93 1016.14 1016.48 1016.99 1017.67 1018.50 1019.41 1020.30 1021.05 1021.58 1021.82 1021.73 1021.35 1020.74 1020.01 1019.25 1018.57 1018.02 1017.63 1017.39 1017.25 1017.17 1017.08 1016.97 1016.81 1016.62 1016.41 1016.20 1016.04 1015.91 1015.84 1015.81 1015.82 1015.84 1015.88 1015.91 1015.94 1015.96 1015.95 1015.91
1014.80 1014.89 1015.02 1015.16 1015.31 1015.44 1015.55 1015.65 1015.78 1015.96 1016.25 1016.68 1017.26 1018.00 1018.84 1019.74 1020.59 1021.30 1021.79 1022.01 1021.96 1021.65 1021.15 1020.54 1019.91 1019.34 1018.89 1018.57 1018.37 1018.26 1018.19 1018.13 1018.03 1017.88 1017.70 1017.48 1017.26 1017.05 1016.87 1016.72 1016.61 1016.52 1016.47 1016.43 1016.40 1016.38 1016.35 1016.30 1016.21
1014.94 1015.07 1015.21 1015.35 1015.48 1015.59 1015.69 1015.80 1015.96 1016.20 1016.54 1017.03 1017.64 1018.38 1019.19 1020.01 1020.78 1021.41 1021.85 1022.07 1022.05 1021.83 1021.46 1021.00 1020.53 1020.11 1019.77 1019.53 1019.38 1019.30 1019.25 1019.20 1019.12 1019.00 1018.83 1018.63 1018.40 1018.17 1017.94 1017.73 1017.53 1017.37 1017.22 1017.10 1017.00 1016.91 1016.81 1016.70 1016.57
1015.12 1015.30 1015.47 1015.63 1015.76 1015.88 1016.00 1016.15 1016.36 1016.65 1017.05 1017.56 1018.17 1018.86 1019.59 1020.30 1020.94 1021.47 1021.84 1022.03 1022.05 1021.93 1021.69 1021.40 1021.09 1020.81 1020.59 1020.43 1020.34 1020.29 1020.26 1020.23 1020.16 1020.07 1019.92 1019.74 1019.52 1019.27 1019.01 1018.75 1018.50 1018.26 1018.04 1017.85 1017.68 1017.51 1017.35 1017.17 1016.98
1015.38 1015.60 1015.82 1016.00 1016.17 1016.32 1016.49 1016.69 1016.96 1017.31 1017.75 1018.27 1018.86 1019.47 1020.08 1020.66 1021.15 1021.55 1021.83 1021.99 1022.03 1021.99 1021.88 1021.73 1021.57 1021.43 1021.32 1021.24 1021.20 1021.18 1021.17 1021.15 1021.11 1021.03 1020.91 1020.74 1020.53 1020.28 1020.00 1019.71 1019.41 1019.12 1018.85 1018.60 1018.37 1018.15 1017.93 1017.70 1017.47
1015.74 1015.99 1016.24 1016.46 1016.66 1016.86 1017.08 1017.34 1017.68 1018.09 1018.57 1019.10 1019.64 1020.18 1020.68 1021.10 1021.45 1021.71 1021.89 1022.00 1022.05 1022.06 1022.05 1022.02 1021.99 1021.96 1021.94 1021.93 1021.93 1021.93 1021.94 1021.94 1021.91 1021.86 1021.76 1021.60 1021.40 1021.15 1020.85 1020.54 1020.21 1019.88 1019.58 1019.29 1019.03 1018.77 1018.52 1018.26 1017.99
1016.16 1016.44 1016.70 1016.94 1017.17 1017.40 1017.67 1017.99 1018.39 1018.86 1019.38 1019.92 1020.45 1020.92 1021.32 1021.62 1021.84 1021.98 1022.07 1022.12 1022.17 1022.21 1022.26 1022.31 1022.37 1022.42 1022.46 1022.50 1022.53 1022.56 1022.58 1022.59 1022.58 1022.54 1022.46 1022.31 1022.11 1021.85 1021.54 1021.20 1020.85 1020.51 1020.18 1019.88 1019.61 1019.34 1019.08 1018.81 1018.54
1016.62 1016.89 1017.15 1017.39 1017.62 1017.87 1018.16 1018.53 1018.98 1019.50 1020.07 1020.64 1021.16 1021.60 1021.94 1022.17 1022.30 1022.36 1022.38 1022.39 1022.41 1022.46 1022.54 1022.64 1022.73 1022.83 1022.90 1022.96 1023.01 1023.05 1023.09 1023.12 1023.13 1023.11 1023.03 1022.90 1022.69 1022.41 1022.08 1021.72 1021.35 1020.99 1020.65 1020.36 1020.08 1019.83 1019.58 1019.33 1019.06
1017.04 1017.30 1017.53 1017.74 1017.94 1018.18 1018.48 1018.86 1019.35 1019.91 1020.53 1021.14 1021.70 1022.15 1022.49 1022.69 1022.79 1022.81 1022.79 1022.77 1022.78 1022.83 1022.90 1023.00 1023.11 1023.20 1023.28 1023.35 1023.40 1023.45 1023.51 1023.56 1023.59 1023.58 1023.52 1023.39 1023.17 1022.88 1022.52 1022.13 1021.74 1021.36 1021.02 1020.73 1020.47 1020.24 1020.01 1019.78 1019.53
1017.38 1017.61 1017.80 1017.96 1018.11 1018.30 1018.57 1018.95 1019.45 1020.05 1020.71 1021.38 1022.00 1022.51 1022.89 1023.13 1023.26 1023.29 1023.28 1023.25 1023.25 1023.28 1023.34 1023.41 1023.49 1023.56 1023.62 1023.67 1023.72 1023.78 1023.85 1023.92 1023.98 1024.00 1023.96 1023.84 1023.61 1023.31 1022.93 1022.51 1022.08 1021.69 1021.34 1021.05 1020.80 1020.58 1020.38 1020.17 1019.95
1017.61 1017.81 1017.95 1018.05 1018.14 1018.26 1018.48 1018.82 1019.31 1019.93 1020.64 1021.37 1022.07 1022.67 1023.14 1023.47 1023.66 1023.75 1023.78 1023.78 1023.78 1023.79 1023.81 1023.85 1023.88 1023.91 1023.92 1023.95 1023.99 1024.05 1024.13 1024.24 1024.33 1024.39 1024.38 1024.27 1024.05 1023.74 1023.35 1022.91 1022.46 1022.04 1021.68 1021.37 1021.12 1020.91 1020.72 1020.52 1020.31
1017.78 1017.95 1018.04 1018.07 1018.08 1018.12 1018.27 1018.56 1019.02 1019.64 1020.39 1021.18 1021.97 1022.67 1023.26 1023.70 1023.99 1024.17 1024.26 1024.29 1024.30 1024.30 1024.30 1024.29 1024.27 1024.24 1024.21 1024.20 1024.22 1024.29 1024.39 1024.52 1024.66 1024.76 1024.78 1024.71 1024.52 1024.21 1023.82 1023.37 1022.91 1022.48 1022.09 1021.77 1021.51 1021.28 1021.08 1020.88 1020.67
1017.94 1018.08 1018.12 1018.08 1018.00 1017.96 1018.02 1018.24 1018.66 1019.28 1020.04 1020.89 1021.76 1022.57 1023.27 1023.83 1024.24 1024.51 1024.67 1024.76 1024.79 1024.79 1024.76 1024.71 1024.64 1024.56 1024.49 1024.45 1024.45 1024.52 1024.63 1024.80 1024.97 1025.11 1025.18 1025.15 1025.00 1024.73 1024.35 1023.92 1023.46 1023.02 1022.62 1022.28 1022.00 1021.75 1021.52 1021.30 1021.07
1018.18 1018.30 1018.28 1018.16 1017.99 1017.85 1017.82 1017.96 1018.32 1018.91 1019.68 1020.57 1021.51 1022.41 1023.22 1023.89 1024.41 1024.77 1025.01 1025.15 1025.21 1025.21 1025.17 1025.09 1024.99 1024.88 1024.78 1024.72 1024.70 1024.76 1024.89 1025.07 1025.27 1025.45 1025.57 1025.59 1025.49 1025.27 1024.94 1024.54 1024.10 1023.67 1023.27 1022.92 1022.61 1022.34 1022.08 1021.82 1021.55
1018.57 1018.65 1018.58 1018.37 1018.10 1017.84 1017.71 1017.76 1018.05 1018.60 1019.37 1020.28 1021.27 1022.24 1023.14 1023.90 1024.50 1024.95 1025.26 1025.44 1025.54 1025.56 1025.52 1025.44 1025.33 1025.21 1025.09 1025.02 1024.99 1025.04 1025.17 1025.36 1025.58 1025.79 1025.95 1026.02 1025.97 1025.81 1025.54 1025.19 1024.80 1024.40 1024.02 1023.66 1023.34 1023.04 1022.76 1022.46 1022.16
1019.15 1019.18 1019.02 1018.70 1018.31 1017.94 1017.69 1017.64 1017.86 1018.36 1019.11 1020.03 1021.05 1022.08 1023.04 1023.87 1024.54 1025.05 1025.41 1025.64 1025.77 1025.82 1025.81 1025.75 1025.66 1025.55 1025.44 1025.37 1025.34 1025.39 1025.51 1025.69 1025.91 1026.13 1026.31 1026.42 1026.43 1026.33 1026.13 1025.85 1025.52 1025.16 1024.81 1024.47 1024.16 1023.85 1023.54 1023.22 1022.88
1019.90 1019.85 1019.57 1019.13 1018.60 1018.10 1017.73 1017.58 1017.72 1018.17 1018.89 1019.82 1020.86 1021.92 1022.92 1023.80 1024.53 1025.08 1025.49 1025.76 1025.93 1026.02 1026.05 1026.03 1025.98 1025.91 1025.83 1025.78 1025.76 1025.80 1025.91 1026.07 1026.27 1026.48 1026.66 1026.79 1026.84 1026.79 1026.66 1026.45 1026.18 1025.89 1025.59 1025.28 1024.98 1024.68 1024.38 1024.05 1023.69
1020.74 1020.58 1020.17 1019.59 1018.91 1018.27 1017.77 1017.53 1017.60 1018.00 1018.70 1019.63 1020.68 1021.77 1022.81 1023.73 1024.48 1025.08 1025.52 1025.83 1026.04 1026.17 1026.25 1026.29 1026.30 1026.28 1026.25 1026.23 1026.23 1026.27 1026.36 1026.48 1026.65 1026.83 1027.00 1027.12 1027.19 1027.19 1027.11 1026.96 1026.76 1026.53 1026.28 1026.02 1025.76 1025.48 1025.19 1024.88 1024.53
1021.54 1021.26 1020.72 1019.98 1019.16 1018.39 1017.78 1017.45 1017.45 1017.82 1018.51 1019.44 1020.52 1021.63 1022.70 1023.65 1024.44 1025.06 1025.53 1025.87 1026.12 1026.31 1026.44 1026.55 1026.62 1026.66 1026.69 1026.71 1026.73 1026.76 1026.83 1026.92 1027.05 1027.18 1027.32 1027.43 1027.50 1027.52 1027.48 1027.38 1027.23 1027.05 1026.85 1026.64 1026.42 1026.18 1025.92 1025.64 1025.32
1022.19 1021.80 1021.12 1020.26 1019.31 1018.43 1017.73 1017.33 1017.30 1017.65 1018.33 1019.28 1020.38 1021.52 1022.62 1023.60 1024.42 1025.07 1025.56 1025.94 1026.23 1026.45 1026.64 1026.80 1026.93 1027.04 1027.12 1027.17 1027.21 1027.25 1027.29 1027.35 1027.44 1027.53 1027.62 1027.71 1027.77 1027.79 1027.77 1027.70 1027.59 1027.45 1027.29 1027.11 1026.92 1026.72 1026.51 1026.27 1025.99
1022.60 1022.12 1021.35 1020.38 1019.35 1018.39 1017.64 1017.20 1017.15 1017.50 1018.20 1019.16 1020.29 1021.47 1022.60 1023.61 1024.46 1025.13 1025.66 1026.06 1026.38 1026.64 1026.87 1027.07 1027.25 1027.40 1027.52 1027.60 1027.66 1027.69 1027.72 1027.75 1027.79 1027.85 1027.91 1027.96 1028.01 1028.02 1028.01 1027.95 1027.86 1027.74 1027.60 1027.44 1027.28 1027.11 1026.93 1026.73 1026.51
1022.76 1022.22 1021.39 1020.37 1019.29 1018.30 1017.53 1017.09 1017.04 1017.40 1018.12 1019.11 1020.27 1021.48 1022.64 1023.68 1024.57 1025.27 1025.83 1026.25 1026.60 1026.88 1027.14 1027.37 1027.57 1027.75 1027.89 1027.98 1028.04 1028.07 1028.08 1028.09 1028.11 1028.13 1028.17 1028.20 1028.23 1028.24 1028.22 1028.17 1028.08 1027.96 1027.82 1027.67 1027.51 1027.34 1027.19 1027.02 1026.85
1022.70 1022.14 1021.30 1020.27 1019.20 1018.21 1017.46 1017.03 1017.00 1017.38 1018.12 1019.13 1020.31 1021.55 1022.74 1023.82 1024.73 1025.48 1026.06 1026.52 1026.89 1027.20 1027.47 1027.71 1027.92 1028.10 1028.23 1028.33 1028.38 1028.39 1028.39 1028.38 1028.38 1028.39 1028.41 1028.43 1028.45 1028.46 1028.43 1028.37 1028.28 1028.14 1027.98 1027.81 1027.64 1027.47 1027.31 1027.16 1027.02
1022.53 1021.97 1021.15 1020.15 1019.11 1018.16 1017.44 1017.05 1017.05 1017.44 1018.19 1019.21 1020.40 1021.65 1022.86 1023.97 1024.93 1025.72 1026.35 1026.85 1027.25 1027.58 1027.87 1028.11 1028.31 1028.47 1028.59 1028.66 1028.69 1028.68 1028.66 1028.63 1028.62 1028.62 1028.64 1028.66 1028.68 1028.69 1028.66 1028.59 1028.47 1028.32 1028.13 1027.93 1027.72 1027.53 1027.35 1027.20 1027.06
1022.35 1021.81 1021.01 1020.06 1019.07 1018.17 1017.50 1017.14 1017.15 1017.55 1018.29 1019.30 1020.48 1021.73 1022.97 1024.11 1025.11 1025.95 1026.65 1027.21 1027.66 1028.02 1028.32 1028.57 1028.76 1028.90 1028.99 1029.02 1029.01 1028.98 1028.93 1028.89 1028.86 1028.86 1028.87 1028.90 1028.92 1028.92 1028.89 1028.81 1028.68 1028.49 1028.27 1028.03 1027.78 1027.54 1027.33 1027.15 1027.00
1022.25 1021.71 1020.93 1020.01 1019.06 1018.21 1017.58 1017.24 1017.26 1017.65 1018.37 1019.36 1020.52 1021.76 1023.00 1024.18 1025.24 1026.15 1026.92 1027.56 1028.08 1028.50 1028.84 1029.10 1029.29 1029.40 1029.46 1029.45 1029.41 1029.33 1029.25 1029.18 1029.14 1029.12 1029.12 1029.14 1029.16 1029.15 1029.11 1029.01 1028.86 1028.65 1028.39 1028.11 1027.81 1027.53 1027.27 1027.05 1026.87
Thickness
5686 5689 5692 5692 5684 5677 5676 5679 5682 5679 5680 5680 5681 5684 5685 5681 5679 5671 5662 5664 5665 5666 5667 5668 5670 5672 5673 5674 5674 5675 5675 5676 5677 5678 5678 5679 5680 5681 5681 5682 5682 5683 5684 5685 5685 5686 5686 5687 5687
5683 5686 5686 5683 5675 5669 5672 5677 5674 5675 5675 5672 5672 5675 5675 5668 5663 5660 5657 5657 5659 5660 5661 5662 5664 5665 5667 5668 5668 5669 5670 5671 5671 5672 5672 5673 5674 5675 5675 5676 5676 5677 5678 5678 5679 5680 5681 5681 5682
5679 5681 5678 5674 5669 5671 5671 5671 5671 5666 5665 5666 5665 5665 5665 5658 5652 5651 5650 5651 5653 5654 5655 5655 5657 5659 5660 5661 5662 5663 5664 5665 5665 5665 5666 5666 5667 5668 5669 5669 5669 5670 5671 5672 5673 5673 5674 5675 5676
5675 5673 5670 5666 5663 5666 5668 5667 5665 5661 5659 5660 5662 5657 5651 5644 5643 5643 5643 5645 5647 5647 5648 5648 5650 5651 5653 5654 5655 5656 5656 5657 5658 5658 5658 5659 5660 5661 5661 5662 5662 5663 5664 5665 5666 5667 5668 5668 5669
5669 5666 5659 5657 5659 5660 5660 5660 5659 5659 5657 5654 5657 5654 5646 5636 5636 5637 5638 5639 5640 5640 5640 5641 5642 5643 5645 5647 5648 5648 5648 5649 5649 5649 5650 5651 5651 5652 5653 5654 5654 5655 5656 5657 5658 5660 5660 5661 5662
5661 5660 5655 5655 5656 5654 5654 5652 5654 5654 5651 5647 5648 5649 5639 5630 5630 5630 5631 5632 5632 5633 5633 5634 5634 5635 5636 5638 5639 5640 5640 5640 5640 5640 5641 5641 5642 5643 5644 5645 5646 5647 5648 5649 5651 5652 5653 5654 5655
5656 5654 5654 5655 5652 5650 5648 5646 5648 5649 5644 5640 5641 5643 5634 5626 5623 5623 5624 5624 5625 5625 5626 5626 5626 5626 5627 5628 5630 5630 5631 5631 5631 5631 5631 5631 5632 5633 5634 5636 5637 5639 5640 5641 5642 5644 5645 5647 5648
5653 5650 5646 5649 5648 5648 5643 5639 5638 5640 5636 5629 5630 5633 5628 5620 5615 5616 5617 5617 5617 5617 5618 5618 5618 5618 5619 5619 5620 5620 5621 5621 5621 5622 5621 5622 5623 5624 5625 5627 5628 5630 5631 5633 5634 5635 5637 5638 5640
5645 5642 5643 5645 5644 5643 5635 5633 5627 5625 5625 5619 5616 5615 5613 5610 5609 5610 5610 5610 5609 5609 5609 5609 5609 5610 5610 5610 5610 5611 5611 5611 5612 5612 5612 5613 5614 5615 5616 5617 5619 5620 5622 5623 5625 5626 5628 5630 5632
5638 5637 5640 5637 5638 5635 5627 5626 5621 5620 5618 5614 5610 5604 5601 5601 5602 5603 5603 5602 5601 5599 5599 5599 5600 5600 5601 5601 5601 5601 5601 5601 5602 5602 5603 5604 5605 5605 5606 5606 5609 5611 5612 5614 5615 5617 5619 5622 5625
5630 5631 5628 5623 5622 5623 5618 5613 5612 5616 5612 5609 5606 5599 5594 5593 5594 5594 5594 5593 5592 5590 5589 5590 5590 5590 5591 5591 5591 5590 5591 5591 5592 5592 5592 5593 5594 5595 5596 5598 5599 5601 5604 5606 5607 5609 5611 5614 5616
5619 5615 5615 5613 5609 5610 5609 5605 5601 5602 5601 5597 5596 5592 5587 5586 5585 5584 5584 5583 5582 5581 5581 5581 5580 5580 5580 5580 5580 5580 5580 5581 5581 5581 5582 5583 5585 5586 5587 5588 5590 5592 5594 5596 5598 5600 5602 5605 5607
5610 5603 5600 5598 5596 5596 5595 5594 5593 5589 5586 5584 5583 5581 5579 5578 5576 5574 5573 5572 5572 5572 5571 5570 5570 5570 5570 5569 5569 5569 5569 5569 5569 5570 5571 5572 5574 5576 5577 5578 5579 5581 5583 5586 5588 5591 5593 5595 5597
5599 5595 5592 5591 5590 5588 5587 5584 5583 5582 5577 5574 5573 5572 5570 5568 5566 5565 5563 5562 5562 5561 5561 5560 5560 5559 5559 5559 5558 5558 5558 5558 5558 5558 5559 5561 5563 5565 5566 5568 5570 5572 5573 5576 5578 5581 5583 5585 5587
5588 5588 5586 5583 5582 5580 5581 5581 5576 5573 5568 5566 5564 5561 5558 5556 5555 5554 5553 5552 5551 5550 5550 5549 5549 5548 5548 5548 5547 5547 5546 5546 5546 5547 5548 5550 5551 5553 5555 5557 5559 5561 5563 5565 5568 5571 5573 5575 5577
5583 5586 5587 5577 5573 5571 5575 5588 5571 5562 5560 5559 5555 5552 5549 5546 5544 5543 5542 5541 5540 5539 5539 5538 5538 5537 5537 5536 5536 5535 5535 5534 5535 5536 5537 5538 5539 5541 5543 5546 5548 5550 5552 5555 5558 5560 5563 5565 5567
5578 5582 5583 5573 5563 5564 5569 5577 5561 5551 5552 5551 5547 5543 5540 5537 5534 5532 5531 5530 5528 5528 5527 5526 5525 5525 5525 5524 5524 5523 5522 5522 5523 5524 5525 5526 5527 5529 5532 5534 5537 5539 5542 5544 5547 5550 5551 5554 5556
5575 5575 5572 5569 5557 5556 5561 5564 5554 5544 5542 5544 5540 5535 5531 5529 5526 5522 5520 5518 5517 5516 5515 5514 5513 5512 5512 5511 5511 5510 5509 5509 5509 5510 5511 5513 5515 5517 5519 5522 5525 5528 5531 5533 5535 5538 5540 5542 5544
5561 5562 5564 5558 5544 5546 5554 5555 5550 5539 5535 5535 5532 5527 5523 5519 5516 5512 5509 5507 5505 5504 5503 5502 5500 5499 5499 5499 5498 5498 5497 5496 5495 5496 5497 5499 5501 5504 5506 5510 5512 5516 5519 5521 5524 5527 5529 5531 5532
5547 5549 5552 5545 5533 5535 5541 5545 5542 5534 5528 5526 5523 5519 5514 5510 5505 5501 5498 5496 5494 5492 5491 5489 5488 5486 5485 5484 5483 5483 5482 5481 5481 5482 5483 5485 5487 5490 5493 5497 5500 5503 5506 5509 5512 5514 5518 5520 5520
5535 5538 5538 5533 5527 5523 5527 5546 5538 5525 5517 5513 5511 5508 5504 5501 5497 5492 5488 5485 5482 5480 5477 5476 5475 5473 5472 5471 5470 5469 5469 5468 5469 5469 5470 5471 5473 5476 5480 5483 5487 5490 5493 5496 5499 5501 5506 5508 5509
5528 5517 5516 5515 5522 5530 5520 5541 5543 5522 5513 5507 5504 5500 5496 5490 5486 5482 5478 5474 5470 5467 5464 5462 5461 5460 5459 5458 5458 5458 5458 5458 5457 5457 5458 5459 5460 5462 5466 5469 5473 5476 5479 5482 5486 5488 5491 5495 5497
5508 5499 5500 5502 5506 5509 5508 5514 5538 5509 5511 5507 5500 5493 5486 5480 5475 5471 5466 5462 5458 5454 5452 5450 5449 5447 5446 5445 5445 5445 5445 5444 5443 5443 5444 5446 5447 5449 5452 5455 5458 5462 5465 5468 5472 5475 5478 5481 5484
5487 5489 5488 5488 5495 5502 5500 5504 5528 5515 5506 5501 5491 5482 5475 5468 5462 5458 5454 5449 5445 5442 5439 5438 5437 5435 5433 5432 5431 5431 5431 5431 5430 5431 5432 5433 5434 5436 5438 5440 5444 5448 5451 5455 5458 5462 5464 5467 5470
5482 5493 5501 5501 5499 5508 5475 5482 5505 5496 5484 5479 5473 5468 5461 5455 5450 5446 5441 5437 5434 5430 5428 5426 5424 5423 5421 5420 5418 5418 5417 5417 5418 5418 5419 5420 5421 5423 5425 5427 5431 5434 5437 5441 5445 5448 5451 5454 5457
5474 5481 5493 5499 5505 5504 5466 5481 5496 5471 5461 5456 5451 5448 5445 5442 5438 5433 5429 5425 5422 5418 5416 5414 5413 5411 5409 5407 5405 5404 5404 5404 5404 5404 5405 5406 5407 5409 5411 5413 5417 5421 5424 5428 5432 5436 5439 5441 5444
5465 5467 5462 5467 5452 5464 5487 5480 5476 5459 5453 5447 5442 5437 5432 5429 5424 5420 5416 5412 5409 5407 5404 5402 5401 5399 5397 5395 5393 5393 5393 5392 5391 5391 5391 5392 5393 5395 5398 5401 5404 5408 5412 5415 5418 5422 5426 5428 5431
5448 5450 5452 5457 5464 5476 5482 5477 5482 5459 5452 5442 5435 5429 5422 5415 5411 5407 5402 5399 5396 5394 5392 5390 5389 5387 5385 5383 5382 5382 5381 5380 5379 5379 5379 5380 5381 5382 5385 5388 5391 5395 5399 5402 5406 5410 5413 5415 5417
5435 5434 5440 5445 5445 5463 5473 5482 5462 5452 5442 5434 5425 5417 5411 5404 5399 5394 5389 5386 5384 5382 5380 5378 5376 5374 5373 5371 5370 5370 5369 5367 5367 5366 5367 5367 5368 5370 5372 5375 5378 5382 5385 5389 5392 5396 5398 5401 5404
5424 5431 5432 5440 5436 5432 5451 5463 5435 5429 5422 5416 5410 5403 5397 5391 5385 5381 5377 5373 5371 5370 5368 5366 5364 5362 5361 5359 5359 5358 5357 5356 5355 5355 5355 5355 5356 5358 5360 5362 5365 5368 5372 5375 5379 5382 5384 5387 5390